Showing default

DX 1, 40071

Orbit data source: Space-Track

DX 1, 40071 is a payload satellite owned by Dauria (CIS) in SSO that was launched on Tue, 08 Jul 2014 UTC via a SOYUZ-2-1B launch vehicle from the Tyuratam Missile And Space Complex (TTMTR). Payload-class satellites include a variety of spacecraft equipped with specific instruments for various scientific and technological missions. These include communications satellites like Starlink; space stations such as the ISS; scientific satellites like the Hubble; Earth observation satellites from companies like Planet Labs, Umbra, and HawkEye 360; GPS; miniature CubeSats for education and research; and military/defense satellites.

Loading next visibility...
Identifier
40071, 2014-037C
Orbit
SSO
Country
Flag of CISCIS
Related business
Manufacturer
Dauria
Mission
Operational Commercial Technology
Bus & Motor
DX-1, Unknown motor
Mass
21 kg wet, 21 kg dry
Launch date (UTC)
2014-07-08 (11 years ago)
Launch vehicle
SOYUZ-2-1B
Launch site
Tyuratam Missile And Space Complex (TTMTR)
Object type
Payload
Rocket body
Debris
Shape & HBR
Box, 0.1 m
Radar Cross Section
0.060 m², Medium (>0.1 m² and < 1m²)

Expand to show TLE details & history
Last TLE update: 10 hours ago

TLE from 10 hours ago
0 DX 1
1 40071U 14037C   25355.15636560  .00002464  00000-0  26713-3 0  9997
2 40071  98.3652 301.4119 0008305 123.5334 236.6675 14.89181396619600
Epoch: 2025-12-21T03:45Z
TLE epoch observation values (Epoch: 2025-12-21T03:45:09.987Z)
Latitude
-0.00013°
Longitude
155.14745°
Altitude
606.7 km
Speed
7.554 km/s
True Right ascension
20h 05m 38s
True Declination
0° 00' 00"
Sunlit
Object was in daylight at epoch
Visualization orbit readout
Latitude
Unknown
Longitude
Unknown
Altitude
Unknown
Speed
Unknown
Apparent Right ascension
Unknown
Apparent Declination
Unknown
Sunlit
N/A
Visualization observer readout
Local Sidereal Time
12:57:27
Azimuth
Unknown
Elevation
Unknown
Doppler factor
Unknown
Orbital elements
Apogee altitude
603.335 km
Perigee altitude
591.749 km
Semi-major axis
6,975.679 km
Eccentricity
0.00083
Inclination
98.3652°
RAAN
301.4119°
Arg. of periapsis
123.5334°
True anomaly
236.58803°
Mean anomaly
236.6675°
Eccentric anomaly
236.62776°
Mean motion
3.72532 °/min
Orbital period
96.64 mins
BSTAR
0.00026713
Loading maneuver chart data...
Computing Atmospheric mass density...
Loading historical data...
Loading historical data...
Loading historical data...
Loading historical data...
Loading historical data...
Loading historical data...
Loading historical data...

Documentation

Showing up to 5 results
|